Regional Weather Roundup
Issued by NWS

Home | Current Version | Previous Version | Text Only | Print | Product List | Glossary On
Versions: 1 2 3 4 5 6 7 8 9 10 11 12 13 14 15 16 17 18 19 20 21 22 23 24 25 26 27 28 29 30 31 32 33 34 35 36 37 38 39 40 41 42 43 44 45 46 47 48 49 50
000
ASUS45 KABQ 241510
RWRNM
NEW MEXICO REGIONAL WEATHER ROUNDUP
NATIONAL WEATHER SERVICE ALBUQUERQUE NM
900 AM MDT SAT JUN 24 2017

NOTE: "FAIR" MEANS FEW OR NO CLOUDS BELOW 12,000 FEET AGL WITH NO
       SIGNIFICANT WEATHER OR OBSTRUCTIONS TO VISION.

      THIS PRODUCT IS RELEASED AS TWO VERSIONS.  ONE VERSION NEAR
      THE TOP OF THE HOUR CONTAINING PRELIMINARY DATA FROM ALBUQUERQUE
      AND OTHER STATIONS.  A FINAL VERSION WITH ADDITIONAL DATA IS
      ISSUED ABOUT 10 MINUTES AFTER THE HOUR.

NMZ501-503-504-510>518-241600-
NORTHWEST PLATEAU/NORTHCENTRAL MOUNTAINS

CITY           SKY/WX    TMP DP  RH WIND       PRES   REMARKS
FARMINGTON     FAIR      71  38  29 E5        30.22R
LOS ALAMOS     FAIR      62  50  64 S16       30.38F
SANTA FE       FAIR      67  53  61 S21G28    30.34S
TAOS           PTSUNNY   64  48  55 S10         N/A
ANGEL FIRE     FAIR      58  49  73 S14       30.45S

$$
NMZ402-403-502-505>509-241600-
WESTCENTRAL MOUNTAINS/SOUTHWEST MOUNTAINS

CITY           SKY/WX    TMP DP  RH WIND       PRES   REMARKS
GALLUP         FAIR      72  49  44 E7        30.28S
GRANTS         FAIR      72  55  56 SE12      30.32S
SILVER CITY    FAIR      80  54  40 SE8       30.22R

$$
NMZ407-409-411-412-241600-
SOUTHERN DESERTS

CITY           SKY/WX    TMP DP  RH WIND       PRES   REMARKS
DEMING         FAIR      83  54  36 E16       30.14R
LAS CRUCES     FAIR      85  54  34 NE5       30.16R
HOLLOMAN AFB   FAIR      82  57  41 W7        30.16R
ALAMOGORDO     FAIR      82  55  39 W3        30.16
T OR C         FAIR      80  56  43 N8        30.18R

$$
NMZ519>523-241600-
CENTRAL VALLEYS/CENTRAL HIGHLANDS

CITY           SKY/WX    TMP DP  RH WIND       PRES   REMARKS
ALBUQUERQUE    CLOUDY    73  53  49 E16       30.27S
DOUBLE EAGLE   SUNNY     72  52  49 NE8       30.30S
MORIARTY ARPT  CLOUDY    65  50  58 E10       30.39R
CLINES CORNERS CLOUDY    57  45  64 E14       30.43R
BELEN          FAIR      75  50  41 NE3       30.25S
SOCORRO        FAIR      76  53  44 CALM      30.23R

$$
NMZ524>526-539-540-241600-
SOUTHCENTRAL MOUNTAINS

CITY           SKY/WX    TMP DP  RH WIND       PRES   REMARKS
RUIDOSO        CLOUDY    57  48  72 SE10      30.43R

$$
NMZ527>531-241600-
NORTHEAST HIGHLANDS/NORTHEAST PLAINS

CITY           SKY/WX    TMP DP  RH WIND       PRES   REMARKS
LAS VEGAS      CLOUDY    57  45  64 S12       30.41S
RATON          CLOUDY    59  46  62 SW13      30.37S
CLAYTON        CLOUDY    61  45  55 SE10      30.35R

$$
NMZ532>537-241600-
EASTCENTRAL PLAINS

CITY           SKY/WX    TMP DP  RH WIND       PRES   REMARKS
SANTA ROSA     CLOUDY    65  45  48 E7        30.33S
TUCUMCARI      CLOUDY    66  49  54 E9        30.29F
CANNON AFB     CLOUDY    63  55  74 E14       30.32R
CLOVIS AIRPORT CLOUDY    63  52  67 E16       30.33R

$$
NMZ028-029-538-241600-
SOUTHEAST PLAINS

CITY           SKY/WX    TMP DP  RH WIND       PRES   REMARKS
ROSWELL        CLOUDY    70  51  51 E12       30.26R
CARLSBAD       FAIR      73  53  49 NE12      30.24R
HOBBS          CLOUDY    64  57  77 NE16G24   30.28R


$$




USA.gov is the U.S. government's official web portal to all federal, state and local government web resources and services.